STARLINK-11258 [DTC] (62598 NORAD) Tracking and Keplerian Element Data

This shows tracking and keplerian element data for the satellite.

Feedback or suggestion? Click here.




ElementValue
Catalog62598
NameSTARLINK-11258 [DTC]
Epoch Orbit5476
Epoch Day354.07341454
Epoch Year2025
RAAN245.9751
Inclination42.9997
Eccentricity0.0001639
Argument of Perigee260.2299
Mean Anonmoly99.8383
Mean Motion15.70820629
Decay Rate0.00084986
L11 62598U 25008M 25354.07341454 .00084986 00000+0 65958-3 0 9992
L22 62598 42.9997 245.9751 0001639 260.2299 99.8383 15.70820629 54766



Live tracking and technical data element details for STARLINK-11258 [DTC] (NORAD 62598). STARLINK-11258 [DTC] can be tracked NOW for your location showing map with azimuth and elevation plus other details from your city location.







IsCatalogInMostPopularTable: catalog: 62598, numindb: 235
Update: records affected: 1



GetName: 62598 STARLINK-11258 [DTC]

Hit Count: updated at: Fri, 16 Jan 2026 10:00:14 GMT